TimeCST,TemperatureF,Dew PointF,Humidity,Sea Level PressureIn,VisibilityMPH,Wind Direction,Wind SpeedMPH,Gust SpeedMPH,PrecipitationIn,Events,Conditions,WindDirDegrees,DateUTC
12:53 AM,27.0,21.9,81,30.17,10.0,Calm,Calm,-,N/A,,Clear,0,2013-01-17 06:53:00
1:53 AM,28.0,25.0,88,30.16,7.0,Calm,Calm,-,N/A,,Scattered Clouds,0,2013-01-17 07:53:00
2:53 AM,27.0,24.1,89,30.18,8.0,Calm,Calm,-,N/A,,Mostly Cloudy,0,2013-01-17 08:53:00
3:53 AM,27.0,24.1,89,30.17,6.0,Calm,Calm,-,N/A,,Clear,0,2013-01-17 09:53:00
4:53 AM,26.6,24.8,93,30.15,9.0,Calm,Calm,-,N/A,,Clear,0,2013-01-17 10:53:00
5:53 AM,27.0,23.0,85,30.18,10.0,Calm,Calm,-,N/A,,Clear,0,2013-01-17 11:53:00
6:53 AM,27.0,21.9,81,30.21,10.0,Calm,Calm,-,N/A,,Mostly Cloudy,0,2013-01-17 12:53:00
7:53 AM,30.9,27.0,85,30.24,10.0,Calm,Calm,-,N/A,,Overcast,0,2013-01-17 13:53:00
8:53 AM,36.0,28.0,73,30.26,10.0,North,6.9,-,N/A,,Partly Cloudy,350,2013-01-17 14:53:00
9:53 AM,39.9,30.0,68,30.28,10.0,North,16.1,-,N/A,,Clear,360,2013-01-17 15:53:00
10:53 AM,42.1,32.0,67,30.29,10.0,North,13.8,-,N/A,,Clear,350,2013-01-17 16:53:00
11:45 AM,42.8,33.8,70,30.27,9.0,North,19.6,-,N/A,,Mostly Cloudy,350,2013-01-17 17:45:00
11:53 AM,41.0,32.0,70,30.27,10.0,North,18.4,-,N/A,,Mostly Cloudy,350,2013-01-17 17:53:00
12:53 PM,39.9,32.0,73,30.28,10.0,NNW,21.9,28.8,N/A,,Overcast,340,2013-01-17 18:53:00
1:53 PM,42.1,32.0,67,30.29,10.0,NNW,19.6,26.5,N/A,,Overcast,330,2013-01-17 19:53:00
2:12 PM,42.8,30.2,61,30.28,10.0,NNW,20.7,27.6,N/A,,Scattered Clouds,340,2013-01-17 20:12:00
2:53 PM,42.1,28.9,60,30.31,10.0,North,21.9,27.6,N/A,,Clear,350,2013-01-17 20:53:00
3:53 PM,41.0,28.9,62,30.35,10.0,NNW,15.0,-,N/A,,Partly Cloudy,340,2013-01-17 21:53:00
4:53 PM,39.0,26.1,60,30.38,10.0,North,6.9,-,N/A,,Clear,350,2013-01-17 22:53:00
5:53 PM,36.0,26.1,67,30.41,10.0,North,8.1,-,N/A,,Clear,350,2013-01-17 23:53:00
6:53 PM,35.1,23.0,61,30.44,10.0,North,6.9,-,N/A,,Clear,10,2013-01-18 00:53:00
7:53 PM,34.0,24.1,67,30.47,10.0,North,4.6,-,N/A,,Clear,10,2013-01-18 01:53:00
8:53 PM,33.1,21.9,64,30.50,10.0,North,5.8,-,N/A,,Clear,10,2013-01-18 02:53:00
9:53 PM,30.9,21.9,69,30.50,10.0,North,5.8,-,N/A,,Clear,10,2013-01-18 03:53:00
10:53 PM,30.9,21.9,69,30.51,10.0,North,3.5,-,N/A,,Clear,10,2013-01-18 04:53:00
11:53 PM,30.0,21.9,72,30.52,10.0,Calm,Calm,-,N/A,,Clear,0,2013-01-18 05:53:00